Regional Weather Roundup
Issued by NWS

Home | Current Version | Previous Version | Text Only | Print | Product List | Glossary Off
Versions: 1 2 3 4 5 6 7 8 9 10 11 12 13 14 15 16 17 18 19 20 21 22 23 24 25 26 27 28 29 30 31 32 33 34 35 36 37 38 39 40 41 42 43 44 45 46 47 48 49 50

000
ASUS43 KMPX 271210
RWRMN
WEATHER ROUNDUP FOR MINNESOTA
NATIONAL WEATHER SERVICE TWIN CITIES/CHANHASSEN MN
600 AM CST TUE JAN 27 2015


NOTE: "FAIR" INDICATES FEW OR NO CLOUDS BELOW 12,000 FEET WITH NO
SIGNIFICANT WEATHER AND/OR OBSTRUCTIONS TO VISIBILITY. N/A MEANS
CURRENT SKY AND/OR WEATHER CONDITIONS ARE NOT AVAILABLE.

MNZ060>063-068>070-271300-
   Twin Cities Metro

CITY           SKY/WX    TMP DP  RH WIND       PRES   REMARKS
TWIN CITIES    CLOUDY    33  25  72 NE6       30.09R WCI  28
6HR MIN TEMP:  33; 6HR MAX TEMP:  36;

ST PAUL        CLOUDY    33  26  75 NE5       30.11R WCI  29
CRYSTAL        CLOUDY    34  25  69 NE3       30.08R
BLAINE         CLOUDY    34  28  80 NE7       30.09R WCI  28
LAKEVILLE      CLOUDY    32  27  80 N5        30.08S WCI  27
EDEN PRAIRIE   CLOUDY    33  25  72 N3        30.08R
6HR MIN TEMP:  33; 6HR MAX TEMP:  35;

SOUTH ST PAUL  CLOUDY    33  26  75 NE3       30.10R
LAKE ELMO      CLOUDY    32  28  86 NE5       30.10R WCI  27
$$
MNZ001>005-007-008-013>017-022>024-027-028-271300-
   Northwest Minnesota

CITY           SKY/WX    TMP DP  RH WIND       PRES   REMARKS
BEMIDJI        CLOUDY    24  23  96 S3        30.06R FOG
HALLOCK        FOG       25  21  86 S10       30.02F VSB 1/2 WCI  15
ROSEAU         FOG       21  18  86 S7        30.04S VSB 1   WCI  13
WARROAD        CLOUDY    21  18  86 S6        30.05S FOG     WCI  14
THIEF RVR FALL CLOUDY    25  23  93 SE6       30.05R VSB 1/4 WCI  18
CROOKSTON      FOG       25  25 100 S6        30.07R VSB 1/2 WCI  18
FOSSTON        FOG       23  21  93 CALM      30.05S VSB 3/4
DETROIT LAKES  FOG       27  27 100 S8        30.06R VSB 1/2 WCI  18
MOORHEAD       FOG       27  27 100 SE7       30.07R VSB 3/4 WCI  19
PARK RAPIDS    CLOUDY    26  24  92 SE5       30.05R WCI  20
MAHNOMEN       FOG       24  23  96 SE6       30.05R VSB 1   WCI  17
$$
MNZ006-009>011-018-025>026-271300-
   North Central Minnesota

CITY           SKY/WX    TMP DP  RH WIND       PRES   REMARKS
BAUDETTE       CLOUDY    23  21  92 S8        30.04R WCI  14
FLAG ISLAND    CLOUDY    21  21 100 S8        30.03R FOG     WCI  12
INTL FALLS     CLOUDY    22  20  92 CALM      30.06R
6HR MIN TEMP:  22; 6HR MAX TEMP:  25;

WASKISH        CLOUDY    25  25 100 CALM      30.06R
BIG FORK       CLOUDY    27  21  80 CALM      30.06R
LONGVILLE      CLOUDY    27  25  93 CALM      30.07R
GRAND RAPIDS   CLOUDY    25  21  86 CALM      30.06R
CRANE LAKE     CLOUDY    23  21  93 CALM      30.09R FOG
ORR            CLOUDY    23  19  86 CALM      30.04R
COOK           CLOUDY    25  21  86 CALM      30.06S
WALKER         CLOUDY    26  24  90 CALM      30.07R
$$
MNZ012-019>021-037-271300-
   Northeast Minnesota

CITY           SKY/WX    TMP DP  RH WIND       PRES   REMARKS
DULUTH         CLOUDY    25  21  85 CALM      30.07R
6HR MIN TEMP:  25; 6HR MAX TEMP:  27;

ELY            CLOUDY    21  19  93 CALM      30.06R
HIBBING        CLOUDY    25  20  81 SW3       30.06R
EVELETH        CLOUDY    27  23  86 CALM      30.08R
DULUTH HARBOR  CLOUDY    28  25  86 NE7       30.12R WCI  21
TWO HARBORS    CLOUDY    27  21  80 CALM      30.07R
SILVER BAY     CLOUDY    25  21  86 W3        30.07R
GRAND MARAIS     N/A     22  18  85 NW5       30.11R WCI  16
G MARAIS ARPRT CLOUDY    16  12  86 CALM      30.04R
$$
MNZ029>031-032-039>041-046>048-054>057-064-271300-
   West Central Minnesota

CITY           SKY/WX    TMP DP  RH WIND       PRES   REMARKS
FERGUS FALLS   FOG       27  27 100 SE6       30.09S VSB 3/4 WCI  20
WHEATON        CLOUDY    27  27 100 SE7       30.09S FOG     WCI  19
MORRIS         CLOUDY    28  28 100 SE6       30.06F FOG     WCI  22
ALEXANDRIA     CLOUDY    27  26  96 E5        30.07R WCI  22
ELBOW LAKE     CLOUDY    27  27 100 SE5       30.06S FOG     WCI  21
WADENA         CLOUDY    27  25  93 SE3       30.06R
GLENWOOD       CLOUDY    27  27 100 CALM      30.07R
APPLETON       CLOUDY    30  28  93 SE5       30.08S WCI  25
BENSON         CLOUDY    28  27  93 S3        30.09R
ORTONVILLE     CLOUDY    28  27  93 SE3       30.08R FOG
MADISON        CLOUDY    32  30  93 E5        30.07F FOG     WCI  27
WILLMAR        CLOUDY    30  28  93 E3        30.10R
$$
MNZ033>034-036-042>043-049>051-058-059-271300-
   Central Minnesota

CITY           SKY/WX    TMP DP  RH WIND       PRES   REMARKS
ST CLOUD       CLOUDY    31  25  78 CALM      30.09R
6HR MIN TEMP:  31; 6HR MAX TEMP:  33;

SAUK CENTRE    CLOUDY    29  27  91 E5        30.08R WCI  24
PAYNESVILLE    CLOUDY    28  26  93 CALM      30.08S
AITKIN         CLOUDY    30  25  80 CALM      30.07R
PINE RIVER     CLOUDY    28  25  86 CALM      30.10R
BRAINERD       CLOUDY    30  24  78 CALM      30.08R
STAPLES        CLOUDY    27  25  93 CALM      30.07R
LONG PRAIRIE   CLOUDY    28  27  93 CALM      30.07R
LITTLE FALLS   CLOUDY    32  27  80 CALM      30.09R
LITCHFIELD     CLOUDY    32  28  86 CALM      30.09R
BUFFALO        CLOUDY    32  26  80 CALM      30.10R
MAPLE LAKE     CLOUDY    33  29  86 CALM      30.10R
$$
MNZ037-044-045-052-053-271300-
   East Central Minnesota

CITY           SKY/WX    TMP DP  RH WIND       PRES   REMARKS
PRINCETON      CLOUDY    32  27  80 NE3       30.10R
MORA           CLOUDY    32  27  80 CALM      30.10R
CAMBRIDGE      CLOUDY    34  25  69 CALM      30.08R
RUSH CITY      CLOUDY    30  24  79 NE3       30.10R
MOOSE LAKE     CLOUDY    28  25  86 CALM      30.07R
HINCKLEY       CLOUDY    30  27  86 NE5       30.10R WCI  25
CLOQUET        CLOUDY    27  21  80 CALM      30.08R
MCGREGOR       CLOUDY    30  27  86 CALM      30.08R
$$
MNZ071>073-080-081-089-090-097-098-271300-
   Southwest Minnesota

CITY           SKY/WX    TMP DP  RH WIND       PRES   REMARKS
MONTEVIDEO     CLOUDY    28  28 100 S3        30.09S
GRANITE FALLS  CLOUDY    29  28  95 CALM      30.10R FOG
CANBY          CLOUDY    30  30  99 CALM      30.08R FOG
MARSHALL       CLOUDY    28  27  93 CALM      30.09S VSB 1
REDWOOD FALLS  CLOUDY    32  28  85 CALM      30.08S
OLIVIA         CLOUDY    30  28  93 E5        30.08S WCI  25
PIPESTONE      FOG       30  28  93 SE5       30.05R VSB 1/4 WCI  25
WINDOM         CLOUDY    28  28 100 CALM      30.07S
WORTHINGTON    CLOUDY    28  27  93 NE9       30.07R VSB 1/2 WCI  20
JACKSON        CLOUDY    30  30 100 NE3       30.08R
TRACY          FOG       30  29  98 N3        30.08R VSB 1/4
SLAYTON        FOG       30  29  99 CALM      30.06R VSB 1/2
$$
MNZ065>067-074>077-082>085-091>093-271300-
   South Central Minnesota

CITY           SKY/WX    TMP DP  RH WIND       PRES   REMARKS
MANKATO        CLOUDY    34  27  75 N5        30.09R WCI  30
NEW ULM        CLOUDY    30  28  93 CALM      30.09S
ST JAMES       MOCLDY    32  28  86 N5        30.10R WCI  27
FAIRMONT       CLEAR     28  25  86 N5        30.07S WCI  23
GLENCOE        CLOUDY    33  29  85 N3        30.09R
FARIBAULT      CLOUDY    34  27  75 N5        30.09R WCI  30
OWATONNA       CLOUDY    34  27  75 N5        30.08R WCI  30
WASECA         CLOUDY    32  30  93 N5        30.10R WCI  27
ALBERT LEA     CLOUDY    34  30  86 N5        30.07R WCI  30
$$
MNZ078>079-086>088-094>096-271300-
   Southeast Minnesota

CITY           SKY/WX    TMP DP  RH WIND       PRES   REMARKS
ROCHESTER      CLOUDY    31  28  89 NE8       30.07R WCI  23
6HR MIN TEMP:  31; 6HR MAX TEMP:  34;

RED WING       CLOUDY    34  25  69 NE6       30.10R WCI  29
STANTON        CLOUDY    34  28  80 NE5       30.07R WCI  30
DODGE CENTER   CLOUDY    34  28  80 NE8       30.06R WCI  27
WINONA         CLOUDY    32  27  80 NE3       30.11R
AUSTIN         CLOUDY    34  27  75 N8        30.06R WCI  27
PRESTON        CLOUDY    30  27  89 NE7       30.07R WCI  23
$$
ABBREVIATIONS USED IN REMARKS
   TC - TEMPERATURES IN CELSIUS
  WCI - WIND CHILL INDEX
   HX - HEAT INDEX
  VSB - VISIBILITY
$$


USA.gov is the U.S. government's official web portal to all federal, state and local government web resources and services.